Year,Month,Day,Hour,Minute,Value (Times are PST for temperature in C)
2015,07,15,00,00,16.40
2015,07,15,00,01,16.40
2015,07,15,00,05,16.30
2015,07,15,00,06,16.30
2015,07,15,00,07,16.30
2015,07,15,00,08,16.30
2015,07,15,00,09,16.30
2015,07,15,00,10,16.30
2015,07,15,00,11,16.30
2015,07,15,00,12,16.30
2015,07,15,00,13,16.30
2015,07,15,00,14,16.20
2015,07,15,00,15,16.20
2015,07,15,00,16,16.20
2015,07,15,00,17,16.20
2015,07,15,00,18,16.20
2015,07,15,00,19,16.20
2015,07,15,00,20,16.20
2015,07,15,00,21,16.20
2015,07,15,00,22,16.20
2015,07,15,00,23,16.20
2015,07,15,00,24,16.10
2015,07,15,00,25,16.10
2015,07,15,00,26,16.10
2015,07,15,00,27,16.10
2015,07,15,00,28,16.10
2015,07,15,00,29,16.10
2015,07,15,00,30,16.10
2015,07,15,00,31,16.00
2015,07,15,00,32,16.00
2015,07,15,00,33,16.00
2015,07,15,00,34,16.00
2015,07,15,00,35,15.90
2015,07,15,00,36,15.90
2015,07,15,00,37,15.90
2015,07,15,00,38,15.90
2015,07,15,00,39,15.80
2015,07,15,00,40,15.80
2015,07,15,00,41,15.80
2015,07,15,00,42,15.70
2015,07,15,00,43,15.70
2015,07,15,00,44,15.70
2015,07,15,00,45,15.60
2015,07,15,00,46,15.60
2015,07,15,00,47,15.60
2015,07,15,00,48,15.50
2015,07,15,00,49,15.50
2015,07,15,00,50,15.50
2015,07,15,00,51,15.40
2015,07,15,00,52,15.40
2015,07,15,00,53,15.40
2015,07,15,00,54,15.40
2015,07,15,00,55,15.40
2015,07,15,00,56,15.40
2015,07,15,00,57,15.30
2015,07,15,00,58,15.30
2015,07,15,00,59,15.30
2015,07,15,01,00,15.30
2015,07,15,01,01,15.40
2015,07,15,01,02,15.40
2015,07,15,01,03,15.40
2015,07,15,01,04,15.30
2015,07,15,01,05,15.30
2015,07,15,01,06,15.30
2015,07,15,01,07,15.30
2015,07,15,01,08,15.30
2015,07,15,01,09,15.30
2015,07,15,01,10,15.40
2015,07,15,01,11,15.40
2015,07,15,01,12,15.40
2015,07,15,01,13,15.40
2015,07,15,01,14,15.40
2015,07,15,01,15,15.40
2015,07,15,01,16,15.40
2015,07,15,01,17,15.40
2015,07,15,01,18,15.40
2015,07,15,01,19,15.40
2015,07,15,01,20,15.50
2015,07,15,01,21,15.50
2015,07,15,01,22,15.50
2015,07,15,01,23,15.40
2015,07,15,01,24,15.40
2015,07,15,01,25,15.40
2015,07,15,01,26,15.40
2015,07,15,01,27,15.40
2015,07,15,01,28,15.30
2015,07,15,01,29,15.30
2015,07,15,01,30,15.30
2015,07,15,01,31,15.30
2015,07,15,01,32,15.30
2015,07,15,01,33,15.30
2015,07,15,01,34,15.30
2015,07,15,01,35,15.30
2015,07,15,01,36,15.30
2015,07,15,01,37,15.20
2015,07,15,01,38,15.20
2015,07,15,01,39,15.20
2015,07,15,01,40,15.20
2015,07,15,01,41,15.20
2015,07,15,01,42,15.20
2015,07,15,01,43,15.10
2015,07,15,01,44,15.10
2015,07,15,01,45,15.10
2015,07,15,01,46,15.10
2015,07,15,01,47,15.10
2015,07,15,01,48,15.00
2015,07,15,01,49,15.00
2015,07,15,01,50,15.00
2015,07,15,01,51,15.00
2015,07,15,01,52,14.90
2015,07,15,01,53,14.90
2015,07,15,01,54,14.90
2015,07,15,01,55,14.90
2015,07,15,01,56,14.90
2015,07,15,01,57,14.80
2015,07,15,01,58,14.80
2015,07,15,01,59,14.80
2015,07,15,02,00,14.90
2015,07,15,02,01,14.90
2015,07,15,02,02,14.90
2015,07,15,02,03,14.90
2015,07,15,02,04,14.90
2015,07,15,02,05,14.90
2015,07,15,02,06,14.90
2015,07,15,02,07,14.90
2015,07,15,02,08,14.90
2015,07,15,02,09,14.90
2015,07,15,02,10,14.90
2015,07,15,02,11,14.90
2015,07,15,02,12,14.90
2015,07,15,02,13,14.90
2015,07,15,02,14,14.90
2015,07,15,02,15,14.90
2015,07,15,02,16,14.90
2015,07,15,02,17,14.90
2015,07,15,02,18,14.90
2015,07,15,02,19,14.80
2015,07,15,02,20,14.80
2015,07,15,02,21,14.80
2015,07,15,02,22,14.80
2015,07,15,02,23,14.80
2015,07,15,02,24,14.80
2015,07,15,02,25,14.80
2015,07,15,02,26,14.80
2015,07,15,02,27,14.80
2015,07,15,02,28,14.90
2015,07,15,02,29,14.90
2015,07,15,02,30,14.90
2015,07,15,02,31,14.90
2015,07,15,02,32,14.90
2015,07,15,02,33,14.90
2015,07,15,02,34,14.90
2015,07,15,02,35,14.90
2015,07,15,02,36,14.90
2015,07,15,02,37,14.80
2015,07,15,02,38,14.80
2015,07,15,02,39,14.80
2015,07,15,02,40,14.80
2015,07,15,02,41,14.80
2015,07,15,02,42,14.80
2015,07,15,02,43,14.80
2015,07,15,02,44,14.70
2015,07,15,02,45,14.70
2015,07,15,02,46,14.70
2015,07,15,02,47,14.70
2015,07,15,02,48,14.70
2015,07,15,02,49,14.70
2015,07,15,02,50,14.70
2015,07,15,02,51,14.70
2015,07,15,02,52,14.70
2015,07,15,02,53,14.70
2015,07,15,02,54,14.70
2015,07,15,02,55,14.70
2015,07,15,02,56,14.70
2015,07,15,02,57,14.70
2015,07,15,02,58,14.70
2015,07,15,02,59,14.70
2015,07,15,03,00,14.70
2015,07,15,03,01,14.60
2015,07,15,03,02,14.60
2015,07,15,03,03,14.60
2015,07,15,03,04,14.60
2015,07,15,03,05,14.60
2015,07,15,03,06,14.60
2015,07,15,03,07,14.60
2015,07,15,03,08,14.60
2015,07,15,03,09,14.60
2015,07,15,03,10,14.60
2015,07,15,03,11,14.60
2015,07,15,03,12,14.50
2015,07,15,03,13,14.50
2015,07,15,03,14,14.50
2015,07,15,03,15,14.40
2015,07,15,03,16,14.40
2015,07,15,03,17,14.40
2015,07,15,03,18,14.40
2015,07,15,03,19,14.40
2015,07,15,03,20,14.40
2015,07,15,03,21,14.40
2015,07,15,03,22,14.40
2015,07,15,03,23,14.40
2015,07,15,03,24,14.40
2015,07,15,03,25,14.30
2015,07,15,03,26,14.30
2015,07,15,03,27,14.30
2015,07,15,03,28,14.30
2015,07,15,03,29,14.30
2015,07,15,03,30,14.20
2015,07,15,03,31,14.20
2015,07,15,03,32,14.20
2015,07,15,03,33,14.20
2015,07,15,03,34,14.20
2015,07,15,03,35,14.10
2015,07,15,03,36,14.10
2015,07,15,03,37,14.10
2015,07,15,03,38,14.10
2015,07,15,03,39,14.20
2015,07,15,03,40,14.20
2015,07,15,03,41,14.20
2015,07,15,03,42,14.20
2015,07,15,03,43,14.20
2015,07,15,03,44,14.20
2015,07,15,03,45,14.20
2015,07,15,03,46,14.20
2015,07,15,03,47,14.20
2015,07,15,03,48,14.20
2015,07,15,03,49,14.20
2015,07,15,03,50,14.20
2015,07,15,03,51,14.10
2015,07,15,03,52,14.10
2015,07,15,03,53,14.10
2015,07,15,03,54,14.10
2015,07,15,03,55,14.10
2015,07,15,03,56,14.10
2015,07,15,03,57,14.10
2015,07,15,03,58,14.10
2015,07,15,03,59,14.10
2015,07,15,04,00,14.10
2015,07,15,04,01,14.10
2015,07,15,04,02,14.10
2015,07,15,04,03,14.10
2015,07,15,04,04,14.10
2015,07,15,04,05,14.10
2015,07,15,04,06,14.10
2015,07,15,04,07,14.10
2015,07,15,04,08,14.10
2015,07,15,04,09,14.00
2015,07,15,04,10,14.00
2015,07,15,04,11,14.00
2015,07,15,04,12,14.00
2015,07,15,04,13,14.00
2015,07,15,04,14,14.00
2015,07,15,04,15,14.00
2015,07,15,04,16,14.00
2015,07,15,04,17,14.00
2015,07,15,04,18,14.00
2015,07,15,04,19,14.00
2015,07,15,04,20,14.00
2015,07,15,04,21,14.00
2015,07,15,04,22,14.00
2015,07,15,04,23,14.00
2015,07,15,04,24,14.00
2015,07,15,04,25,14.00
2015,07,15,04,26,14.00
2015,07,15,04,27,13.90
2015,07,15,04,28,13.90
2015,07,15,04,29,13.90
2015,07,15,04,30,13.90
2015,07,15,04,31,13.90
2015,07,15,04,32,13.90
2015,07,15,04,33,13.90
2015,07,15,04,34,13.90
2015,07,15,04,35,13.90
2015,07,15,04,36,13.80
2015,07,15,04,37,13.80
2015,07,15,04,38,13.80
2015,07,15,04,39,13.80
2015,07,15,04,40,13.80
2015,07,15,04,41,13.80
2015,07,15,04,42,13.80
2015,07,15,04,43,13.80
2015,07,15,04,44,13.90
2015,07,15,04,45,13.90
2015,07,15,04,46,13.90
2015,07,15,04,47,13.90
2015,07,15,04,48,13.90
2015,07,15,04,49,13.90
2015,07,15,04,50,13.90
2015,07,15,04,51,13.90
2015,07,15,04,52,13.90
2015,07,15,04,53,13.80
2015,07,15,04,54,13.80
2015,07,15,04,55,13.80
2015,07,15,04,56,13.80
2015,07,15,04,57,13.80
2015,07,15,04,58,13.80
2015,07,15,04,59,13.80
2015,07,15,05,00,13.70
2015,07,15,05,01,13.70
2015,07,15,05,02,13.70
2015,07,15,05,03,13.70
2015,07,15,05,04,13.70
2015,07,15,05,05,13.70
2015,07,15,05,06,13.70
2015,07,15,05,07,13.70
2015,07,15,05,08,13.70
2015,07,15,05,09,13.70
2015,07,15,05,10,13.70
2015,07,15,05,11,13.70
2015,07,15,05,12,13.70
2015,07,15,05,13,13.70
2015,07,15,05,14,13.70
2015,07,15,05,15,13.70
2015,07,15,05,16,13.70
2015,07,15,05,17,13.70
2015,07,15,05,18,13.70
2015,07,15,05,19,13.70
2015,07,15,05,20,13.70
2015,07,15,05,21,13.70
2015,07,15,05,22,13.70
2015,07,15,05,23,13.70
2015,07,15,05,24,13.70
2015,07,15,05,25,13.70
2015,07,15,05,26,13.70
2015,07,15,05,27,13.70
2015,07,15,05,28,13.70
2015,07,15,05,29,13.70
2015,07,15,05,30,13.70
2015,07,15,05,31,13.70
2015,07,15,05,32,13.70
2015,07,15,05,33,13.70
2015,07,15,05,34,13.70
2015,07,15,05,35,13.70
2015,07,15,05,36,13.70
2015,07,15,05,37,13.70
2015,07,15,05,38,13.70
2015,07,15,05,39,13.70
2015,07,15,05,40,13.70
2015,07,15,05,41,13.70
2015,07,15,05,42,13.70
2015,07,15,05,43,13.70
2015,07,15,05,44,13.70
2015,07,15,05,45,13.70
2015,07,15,05,46,13.70
2015,07,15,05,47,13.70
2015,07,15,05,48,13.70
2015,07,15,05,49,13.70
2015,07,15,05,50,13.70
2015,07,15,05,51,13.70
2015,07,15,05,52,13.70
2015,07,15,05,53,13.80
2015,07,15,05,54,13.80
2015,07,15,05,55,13.80
2015,07,15,05,56,13.80
2015,07,15,05,57,13.80
2015,07,15,05,58,13.80
2015,07,15,05,59,13.80
2015,07,15,06,00,13.80
2015,07,15,06,01,13.80
2015,07,15,06,02,13.80
2015,07,15,06,03,13.80
2015,07,15,06,04,13.80
2015,07,15,06,05,13.80
2015,07,15,06,06,13.80
2015,07,15,06,07,13.90
2015,07,15,06,08,13.90
2015,07,15,06,09,13.90
2015,07,15,06,10,13.90
2015,07,15,06,11,13.90
2015,07,15,06,12,13.90
2015,07,15,06,13,13.90
2015,07,15,06,14,13.90
2015,07,15,06,15,14.00
2015,07,15,06,16,14.00
2015,07,15,06,17,14.00
2015,07,15,06,18,14.00
2015,07,15,06,19,14.10
2015,07,15,06,20,14.10
2015,07,15,06,21,14.10
2015,07,15,06,22,14.10
2015,07,15,06,23,14.10
2015,07,15,06,24,14.10
2015,07,15,06,25,14.10
2015,07,15,06,26,14.10
2015,07,15,06,27,14.10
2015,07,15,06,28,14.10
2015,07,15,06,29,14.10
2015,07,15,06,30,14.10
2015,07,15,06,31,14.10
2015,07,15,06,32,14.10
2015,07,15,06,33,14.20
2015,07,15,06,34,14.20
2015,07,15,06,35,14.20
2015,07,15,06,36,14.20
2015,07,15,06,37,14.20
2015,07,15,06,38,14.20
2015,07,15,06,39,14.20
2015,07,15,06,40,14.20
2015,07,15,06,41,14.20
2015,07,15,06,42,14.20
2015,07,15,06,43,14.20
2015,07,15,06,44,14.20
2015,07,15,06,45,14.30
2015,07,15,06,46,14.30
2015,07,15,06,47,14.30
2015,07,15,06,48,14.30
2015,07,15,06,49,14.40
2015,07,15,06,50,14.40
2015,07,15,06,51,14.40
2015,07,15,06,52,14.50
2015,07,15,06,53,14.50
2015,07,15,06,54,14.50
2015,07,15,06,55,14.60
2015,07,15,06,56,14.60
2015,07,15,06,57,14.70
2015,07,15,06,58,14.70
2015,07,15,06,59,14.80
2015,07,15,07,00,14.80
2015,07,15,07,01,14.80
2015,07,15,07,02,14.80
2015,07,15,07,03,14.90
2015,07,15,07,04,14.90
2015,07,15,07,05,14.90
2015,07,15,07,06,15.00
2015,07,15,07,07,15.00
2015,07,15,07,08,15.10
2015,07,15,07,09,15.10
2015,07,15,07,10,15.10
2015,07,15,07,11,15.20
2015,07,15,07,12,15.20
2015,07,15,07,13,15.20
2015,07,15,07,14,15.20
2015,07,15,07,15,15.30
2015,07,15,07,16,15.30
2015,07,15,07,17,15.30
2015,07,15,07,18,15.40
2015,07,15,07,19,15.40
2015,07,15,07,20,15.40
2015,07,15,07,21,15.50
2015,07,15,07,22,15.60
2015,07,15,07,23,15.60
2015,07,15,07,24,15.60
2015,07,15,07,25,15.70
2015,07,15,07,26,15.70
2015,07,15,07,27,15.70
2015,07,15,07,28,15.80
2015,07,15,07,29,15.80
2015,07,15,07,30,15.80
2015,07,15,07,31,15.90
2015,07,15,07,32,15.90
2015,07,15,07,33,15.90
2015,07,15,07,34,16.00
2015,07,15,07,35,16.00
2015,07,15,07,36,16.10
2015,07,15,07,37,16.20
2015,07,15,07,38,16.20
2015,07,15,07,39,16.30
2015,07,15,07,40,16.30
2015,07,15,07,41,16.40
2015,07,15,07,42,16.50
2015,07,15,07,43,16.50
2015,07,15,07,44,16.60
2015,07,15,07,45,16.60
2015,07,15,07,46,16.70
2015,07,15,07,47,16.80
2015,07,15,07,48,16.80
2015,07,15,07,49,16.90
2015,07,15,07,50,17.00
2015,07,15,07,51,17.10
2015,07,15,07,52,17.20
2015,07,15,07,53,17.30
2015,07,15,07,54,17.30
2015,07,15,07,55,17.40
2015,07,15,07,56,17.50
2015,07,15,07,57,17.60
2015,07,15,07,58,17.70
2015,07,15,07,59,17.70
2015,07,15,08,00,17.80
2015,07,15,08,01,17.80
2015,07,15,08,02,17.80
2015,07,15,08,03,17.80
2015,07,15,08,04,17.80
2015,07,15,08,05,17.80
2015,07,15,08,06,17.80
2015,07,15,08,07,17.80
2015,07,15,08,08,17.80
2015,07,15,08,09,17.90
2015,07,15,08,10,17.90
2015,07,15,08,11,17.90
2015,07,15,08,12,18.00
2015,07,15,08,13,18.00
2015,07,15,08,14,18.10
2015,07,15,08,15,18.10
2015,07,15,08,16,18.10
2015,07,15,08,17,18.10
2015,07,15,08,18,18.00
2015,07,15,08,19,18.10
2015,07,15,08,20,18.00
2015,07,15,08,21,18.10
2015,07,15,08,22,18.10
2015,07,15,08,23,18.10
2015,07,15,08,24,18.10
2015,07,15,08,25,18.10
2015,07,15,08,26,18.10
2015,07,15,08,27,18.20
2015,07,15,08,28,18.20
2015,07,15,08,29,18.30
2015,07,15,08,30,18.30
2015,07,15,08,31,18.40
2015,07,15,08,32,18.40
2015,07,15,08,33,18.50
2015,07,15,08,34,18.50
2015,07,15,08,35,18.60
2015,07,15,08,36,18.60
2015,07,15,08,37,18.60
2015,07,15,08,38,18.70
2015,07,15,08,39,18.70
2015,07,15,08,40,18.70
2015,07,15,08,41,18.70
2015,07,15,08,42,18.70
2015,07,15,08,43,18.80
2015,07,15,08,44,18.80
2015,07,15,08,45,18.80
2015,07,15,08,46,18.80
2015,07,15,08,47,18.80
2015,07,15,08,48,18.70
2015,07,15,08,49,18.70
2015,07,15,08,50,18.70
2015,07,15,08,51,18.60
2015,07,15,08,52,18.60
2015,07,15,08,53,18.60
2015,07,15,08,54,18.60
2015,07,15,08,55,18.60
2015,07,15,08,56,18.60
2015,07,15,08,57,18.60
2015,07,15,08,58,18.70
2015,07,15,08,59,18.70
2015,07,15,09,00,18.70
2015,07,15,09,01,18.70
2015,07,15,09,02,18.70
2015,07,15,09,03,18.70
2015,07,15,09,04,18.70
2015,07,15,09,05,18.60
2015,07,15,09,06,18.60
2015,07,15,09,07,18.50
2015,07,15,09,08,18.40
2015,07,15,09,09,18.40
2015,07,15,09,10,18.40
2015,07,15,09,11,18.30
2015,07,15,09,12,18.30
2015,07,15,09,13,18.30
2015,07,15,09,14,18.30
2015,07,15,09,15,18.30
2015,07,15,09,16,18.30
2015,07,15,09,17,18.40
2015,07,15,09,18,18.40
2015,07,15,09,19,18.50
2015,07,15,09,20,18.50
2015,07,15,09,21,18.60
2015,07,15,09,22,18.60
2015,07,15,09,23,18.70
2015,07,15,09,24,18.80
2015,07,15,09,25,18.80
2015,07,15,09,26,18.80
2015,07,15,09,27,18.80
2015,07,15,09,28,18.90
2015,07,15,09,29,18.90
2015,07,15,09,30,18.90
2015,07,15,09,31,18.90
2015,07,15,09,32,19.00
2015,07,15,09,33,19.00
2015,07,15,09,34,19.00
2015,07,15,09,35,19.10
2015,07,15,09,36,19.00
2015,07,15,09,37,19.00
2015,07,15,09,38,19.00
2015,07,15,09,39,19.00
2015,07,15,09,40,19.00
2015,07,15,09,41,18.90
2015,07,15,09,42,18.90
2015,07,15,09,43,18.90
2015,07,15,09,44,18.90
2015,07,15,09,45,18.80
2015,07,15,09,46,18.80
2015,07,15,09,47,18.80
2015,07,15,09,48,18.80
2015,07,15,09,49,18.80
2015,07,15,09,50,18.90
2015,07,15,09,51,18.90
2015,07,15,09,52,19.00
2015,07,15,09,53,19.10
2015,07,15,09,54,19.10
2015,07,15,09,55,19.20
2015,07,15,09,56,19.30
2015,07,15,09,57,19.40
2015,07,15,09,58,19.50
2015,07,15,09,59,19.50
2015,07,15,10,00,19.50
2015,07,15,10,01,19.60
2015,07,15,10,02,19.60
2015,07,15,10,03,19.60
2015,07,15,10,04,19.60
2015,07,15,10,05,19.60
2015,07,15,10,06,19.60
2015,07,15,10,07,19.50
2015,07,15,10,08,19.50
2015,07,15,10,09,19.60
2015,07,15,10,10,19.60
2015,07,15,10,11,19.60
2015,07,15,10,12,19.60
2015,07,15,10,13,19.60
2015,07,15,10,14,19.60
2015,07,15,10,15,19.60
2015,07,15,10,16,19.60
2015,07,15,10,17,19.70
2015,07,15,10,18,19.70
2015,07,15,10,19,19.70
2015,07,15,10,20,19.60
2015,07,15,10,21,19.60
2015,07,15,10,22,19.60
2015,07,15,10,23,19.60
2015,07,15,10,24,19.70
2015,07,15,10,25,19.70
2015,07,15,10,26,19.80
2015,07,15,10,27,19.90
2015,07,15,10,28,19.90
2015,07,15,10,29,19.90
2015,07,15,10,30,19.90
2015,07,15,10,31,19.90
2015,07,15,10,32,19.90
2015,07,15,10,33,19.90
2015,07,15,10,34,20.00
2015,07,15,10,35,20.00
2015,07,15,10,36,20.10
2015,07,15,10,37,20.10
2015,07,15,10,38,20.10
2015,07,15,10,39,20.10
2015,07,15,10,40,20.20
2015,07,15,10,41,20.30
2015,07,15,10,42,20.40
2015,07,15,10,43,20.50
2015,07,15,10,44,20.50
2015,07,15,10,45,20.40
2015,07,15,10,46,20.40
2015,07,15,10,47,20.30
2015,07,15,10,48,20.20
2015,07,15,10,49,20.10
2015,07,15,10,50,20.00
2015,07,15,10,51,19.90
2015,07,15,10,52,19.80
2015,07,15,10,53,19.70
2015,07,15,10,54,19.60
2015,07,15,10,55,19.60
2015,07,15,10,56,19.60
2015,07,15,10,57,19.60
2015,07,15,10,58,19.60
2015,07,15,10,59,19.60
2015,07,15,11,00,19.60
2015,07,15,11,01,19.60
2015,07,15,11,02,19.60
2015,07,15,11,03,19.60
2015,07,15,11,04,19.60
2015,07,15,11,05,19.60
2015,07,15,11,06,19.60
2015,07,15,11,07,19.60
2015,07,15,11,08,19.70
2015,07,15,11,09,19.70
2015,07,15,11,10,19.80
2015,07,15,11,11,19.80
2015,07,15,11,12,19.70
2015,07,15,11,13,19.70
2015,07,15,11,14,19.80
2015,07,15,11,15,19.80
2015,07,15,11,16,20.00
2015,07,15,11,17,20.20
2015,07,15,11,18,20.30
2015,07,15,11,19,20.30
2015,07,15,11,20,20.20
2015,07,15,11,21,20.20
2015,07,15,11,22,20.20
2015,07,15,11,23,20.20
2015,07,15,11,24,20.20
2015,07,15,11,25,20.30
2015,07,15,11,26,20.50
2015,07,15,11,27,20.70
2015,07,15,11,28,20.80
2015,07,15,11,29,20.80
2015,07,15,11,30,20.80
2015,07,15,11,31,20.80
2015,07,15,11,32,20.80
2015,07,15,11,33,20.80
2015,07,15,11,34,20.70
2015,07,15,11,35,20.60
2015,07,15,11,36,20.60
2015,07,15,11,37,20.60
2015,07,15,11,38,20.70
2015,07,15,11,39,20.70
2015,07,15,11,40,20.70
2015,07,15,11,41,20.70
2015,07,15,11,42,20.60
2015,07,15,11,43,20.50
2015,07,15,11,44,20.50
2015,07,15,11,45,20.50
2015,07,15,11,46,20.50
2015,07,15,11,47,20.60
2015,07,15,11,48,20.70
2015,07,15,11,49,20.80
2015,07,15,11,50,20.80
2015,07,15,11,51,20.90
2015,07,15,11,52,20.90
2015,07,15,11,53,20.80
2015,07,15,11,54,20.60
2015,07,15,11,55,20.60
2015,07,15,11,56,20.60
2015,07,15,11,57,20.50
2015,07,15,11,58,20.50
2015,07,15,11,59,20.40
2015,07,15,12,00,20.30
2015,07,15,12,01,20.20
2015,07,15,12,02,20.00
2015,07,15,12,03,19.90
2015,07,15,12,04,19.90
2015,07,15,12,05,19.90
2015,07,15,12,06,20.00
2015,07,15,12,07,20.00
2015,07,15,12,08,20.00
2015,07,15,12,09,20.00
2015,07,15,12,10,19.90
2015,07,15,12,11,19.90
2015,07,15,12,12,19.90
2015,07,15,12,13,19.80
2015,07,15,12,14,19.80
2015,07,15,12,15,19.70
2015,07,15,12,16,19.70
2015,07,15,12,17,19.70
2015,07,15,12,18,19.70
2015,07,15,12,19,19.70
2015,07,15,12,20,19.70
2015,07,15,12,21,19.80
2015,07,15,12,22,19.80
2015,07,15,12,23,19.80
2015,07,15,12,24,19.90
2015,07,15,12,25,19.90
2015,07,15,12,26,20.00
2015,07,15,12,27,20.10
2015,07,15,12,28,20.30
2015,07,15,12,29,20.40
2015,07,15,12,30,20.60
2015,07,15,12,31,20.70
2015,07,15,12,32,20.80
2015,07,15,12,33,20.90
2015,07,15,12,34,21.00
2015,07,15,12,35,21.00
2015,07,15,12,36,21.00
2015,07,15,12,37,21.00
2015,07,15,12,38,20.90
2015,07,15,12,39,20.90
2015,07,15,12,40,20.90
2015,07,15,12,41,20.90
2015,07,15,12,42,20.90
2015,07,15,12,43,20.90
2015,07,15,12,44,20.90
2015,07,15,12,45,20.90
2015,07,15,12,46,20.90
2015,07,15,12,47,20.90
2015,07,15,12,48,20.90
2015,07,15,12,49,20.90
2015,07,15,12,50,21.00
2015,07,15,12,51,21.00
2015,07,15,12,52,21.20
2015,07,15,12,53,21.40
2015,07,15,12,54,21.60
2015,07,15,12,55,21.60
2015,07,15,12,56,21.70
2015,07,15,12,57,21.70
2015,07,15,12,58,21.70
2015,07,15,12,59,21.80
2015,07,15,13,00,21.70
2015,07,15,13,01,21.70
2015,07,15,13,02,21.60
2015,07,15,13,03,21.60
2015,07,15,13,04,21.60
2015,07,15,13,05,21.50
2015,07,15,13,06,21.50
2015,07,15,13,07,21.60
2015,07,15,13,08,21.60
2015,07,15,13,09,21.80
2015,07,15,13,10,21.90
2015,07,15,13,11,21.90
2015,07,15,13,12,22.00
2015,07,15,13,13,22.00
2015,07,15,13,14,22.00
2015,07,15,13,15,22.10
2015,07,15,13,16,22.10
2015,07,15,13,17,22.10
2015,07,15,13,18,22.20
2015,07,15,13,19,22.10
2015,07,15,13,20,21.90
2015,07,15,13,21,21.80
2015,07,15,13,22,21.60
2015,07,15,13,23,21.40
2015,07,15,13,24,21.30
2015,07,15,13,25,21.20
2015,07,15,13,26,21.10
2015,07,15,13,27,21.10
2015,07,15,13,28,21.10
2015,07,15,13,29,21.10
2015,07,15,13,30,21.20
2015,07,15,13,31,21.30
2015,07,15,13,32,21.40
2015,07,15,13,33,21.60
2015,07,15,13,34,21.70
2015,07,15,13,35,21.60
2015,07,15,13,36,21.70
2015,07,15,13,37,21.70
2015,07,15,13,38,21.70
2015,07,15,13,39,21.60
2015,07,15,13,40,21.50
2015,07,15,13,41,21.40
2015,07,15,13,42,21.40
2015,07,15,13,43,21.50
2015,07,15,13,44,21.50
2015,07,15,13,45,21.60
2015,07,15,13,46,21.60
2015,07,15,13,47,21.50
2015,07,15,13,48,21.50
2015,07,15,13,49,21.50
2015,07,15,13,50,21.60
2015,07,15,13,51,21.70
2015,07,15,13,52,21.70
2015,07,15,13,53,21.70
2015,07,15,13,54,21.70
2015,07,15,13,55,21.80
2015,07,15,13,56,21.80
2015,07,15,13,57,21.80
2015,07,15,13,58,21.80
2015,07,15,13,59,21.80
2015,07,15,14,00,21.70
2015,07,15,14,01,21.60
2015,07,15,14,02,21.50
2015,07,15,14,03,21.40
2015,07,15,14,04,21.40
2015,07,15,14,05,21.30
2015,07,15,14,06,21.30
2015,07,15,14,07,21.40
2015,07,15,14,08,21.50
2015,07,15,14,09,21.60
2015,07,15,14,10,21.60
2015,07,15,14,11,21.70
2015,07,15,14,12,21.70
2015,07,15,14,13,21.70
2015,07,15,14,14,21.70
2015,07,15,14,15,21.60
2015,07,15,14,16,21.70
2015,07,15,14,17,21.70
2015,07,15,14,18,21.70
2015,07,15,14,19,21.80
2015,07,15,14,20,21.90
2015,07,15,14,21,21.80
2015,07,15,14,22,21.70
2015,07,15,14,23,21.60
2015,07,15,14,24,21.50
2015,07,15,14,25,21.40
2015,07,15,14,26,21.40
2015,07,15,14,27,21.40
2015,07,15,14,28,21.40
2015,07,15,14,29,21.50
2015,07,15,14,30,21.50
2015,07,15,14,31,21.70
2015,07,15,14,32,21.80
2015,07,15,14,33,22.00
2015,07,15,14,34,22.20
2015,07,15,14,35,22.30
2015,07,15,14,36,22.30
2015,07,15,14,37,22.30
2015,07,15,14,38,22.40
2015,07,15,14,39,22.40
2015,07,15,14,40,22.50
2015,07,15,14,41,22.50
2015,07,15,14,42,22.60
2015,07,15,14,43,22.60
2015,07,15,14,44,22.70
2015,07,15,14,45,22.60
2015,07,15,14,46,22.60
2015,07,15,14,47,22.50
2015,07,15,14,48,22.50
2015,07,15,14,49,22.40
2015,07,15,14,50,22.30
2015,07,15,14,51,22.40
2015,07,15,14,52,22.50
2015,07,15,14,53,22.60
2015,07,15,14,54,22.60
2015,07,15,14,55,22.60
2015,07,15,14,56,22.60
2015,07,15,14,57,22.50
2015,07,15,14,58,22.40
2015,07,15,14,59,22.30
2015,07,15,15,00,22.20
2015,07,15,15,01,22.30
2015,07,15,15,02,22.40
2015,07,15,15,03,22.40
2015,07,15,15,04,22.30
2015,07,15,15,05,22.40
2015,07,15,15,06,22.40
2015,07,15,15,07,22.40
2015,07,15,15,08,22.50
2015,07,15,15,09,22.50
2015,07,15,15,10,22.60
2015,07,15,15,11,22.70
2015,07,15,15,12,22.80
2015,07,15,15,13,23.00
2015,07,15,15,14,23.10
2015,07,15,15,15,23.20
2015,07,15,15,16,23.30
2015,07,15,15,17,23.20
2015,07,15,15,18,23.10
2015,07,15,15,19,22.90
2015,07,15,15,20,22.80
2015,07,15,15,21,22.70
2015,07,15,15,22,22.60
2015,07,15,15,23,22.40
2015,07,15,15,24,22.30
2015,07,15,15,25,22.20
2015,07,15,15,26,22.20
2015,07,15,15,27,22.10
2015,07,15,15,28,22.00
2015,07,15,15,29,21.90
2015,07,15,15,30,21.70
2015,07,15,15,31,21.60
2015,07,15,15,32,21.50
2015,07,15,15,33,21.50
2015,07,15,15,34,21.40
2015,07,15,15,35,21.30
2015,07,15,15,36,21.30
2015,07,15,15,37,21.30
2015,07,15,15,38,21.20
2015,07,15,15,39,21.10
2015,07,15,15,40,21.00
2015,07,15,15,41,21.00
2015,07,15,15,42,21.00
2015,07,15,15,43,21.00
2015,07,15,15,44,21.00
2015,07,15,15,45,20.90
2015,07,15,15,46,20.90
2015,07,15,15,47,20.90
2015,07,15,15,48,20.90
2015,07,15,15,49,20.80
2015,07,15,15,50,20.80
2015,07,15,15,51,20.80
2015,07,15,15,52,20.80
2015,07,15,15,53,20.70
2015,07,15,15,54,20.70
2015,07,15,15,55,20.60
2015,07,15,15,56,20.60
2015,07,15,15,57,20.50
2015,07,15,15,58,20.50
2015,07,15,15,59,20.40
2015,07,15,16,00,20.30
2015,07,15,16,01,20.30
2015,07,15,16,02,20.20
2015,07,15,16,03,20.20
2015,07,15,16,04,20.20
2015,07,15,16,05,20.20
2015,07,15,16,06,20.20
2015,07,15,16,07,20.20
2015,07,15,16,08,20.20
2015,07,15,16,09,20.30
2015,07,15,16,10,20.40
2015,07,15,16,11,20.50
2015,07,15,16,12,20.70
2015,07,15,16,13,20.80
2015,07,15,16,14,20.80
2015,07,15,16,15,20.90
2015,07,15,16,16,21.00
2015,07,15,16,17,21.10
2015,07,15,16,18,21.10
2015,07,15,16,19,21.10
2015,07,15,16,20,21.20
2015,07,15,16,21,21.30
2015,07,15,16,22,21.40
2015,07,15,16,23,21.60
2015,07,15,16,24,21.70
2015,07,15,16,25,21.80
2015,07,15,16,26,21.90
2015,07,15,16,27,21.90
2015,07,15,16,28,22.00
2015,07,15,16,29,22.00
2015,07,15,16,30,21.90
2015,07,15,16,31,21.90
2015,07,15,16,32,22.00
2015,07,15,16,33,22.10
2015,07,15,16,34,22.10
2015,07,15,16,35,22.10
2015,07,15,16,36,22.00
2015,07,15,16,37,22.00
2015,07,15,16,38,22.00
2015,07,15,16,39,22.10
2015,07,15,16,40,22.20
2015,07,15,16,41,22.20
2015,07,15,16,42,22.20
2015,07,15,16,43,22.20
2015,07,15,16,44,22.20
2015,07,15,16,45,22.20
2015,07,15,16,46,22.20
2015,07,15,16,47,22.40
2015,07,15,16,48,22.50
2015,07,15,16,49,22.60
2015,07,15,16,50,22.60
2015,07,15,16,51,22.70
2015,07,15,16,52,22.70
2015,07,15,16,53,22.80
2015,07,15,16,54,22.90
2015,07,15,16,55,22.90
2015,07,15,16,56,22.90
2015,07,15,16,57,22.90
2015,07,15,16,58,22.80
2015,07,15,16,59,22.80
2015,07,15,17,00,22.80
2015,07,15,17,01,22.80
2015,07,15,17,02,22.80
2015,07,15,17,03,22.80
2015,07,15,17,04,22.70
2015,07,15,17,05,22.60
2015,07,15,17,06,22.50
2015,07,15,17,07,22.40
2015,07,15,17,08,22.30
2015,07,15,17,09,22.10
2015,07,15,17,10,22.00
2015,07,15,17,11,21.80
2015,07,15,17,12,21.60
2015,07,15,17,13,21.30
2015,07,15,17,14,21.10
2015,07,15,17,15,20.90
2015,07,15,17,16,20.80
2015,07,15,17,17,20.70
2015,07,15,17,18,20.60
2015,07,15,17,19,20.60
2015,07,15,17,20,20.50
2015,07,15,17,21,20.50
2015,07,15,17,22,20.50